TimeMDT,TemperatureF,Dew PointF,Humidity,Sea Level PressureIn,VisibilityMPH,Wind Direction,Wind SpeedMPH,Gust SpeedMPH,PrecipitationIn,Events,Conditions,WindDirDegrees,DateUTC
12:53 AM,39.9,27.0,60,30.25,10.0,SE,4.6,-,N/A,,Clear,130,2011-10-30 06:53:00
1:53 AM,37.9,27.0,65,30.25,10.0,West,4.6,-,N/A,,Clear,260,2011-10-30 07:53:00
2:53 AM,37.9,27.0,65,30.25,10.0,Calm,Calm,-,N/A,,Clear,0,2011-10-30 08:53:00
3:53 AM,37.9,27.0,65,30.24,10.0,SSE,6.9,-,N/A,,Clear,160,2011-10-30 09:53:00
4:53 AM,37.0,28.0,70,30.25,10.0,ESE,5.8,-,N/A,,Clear,120,2011-10-30 10:53:00
5:53 AM,37.4,28.4,70,30.30,10.0,SE,6.9,-,N/A,,Clear,140,2011-10-30 11:53:00
6:53 AM,37.4,26.6,65,30.31,10.0,East,4.6,-,N/A,,Clear,100,2011-10-30 12:53:00
7:53 AM,36.0,27.0,70,30.31,10.0,SE,5.8,-,N/A,,Clear,130,2011-10-30 13:53:00
8:53 AM,39.9,30.9,70,30.31,10.0,South,5.8,-,N/A,,Clear,170,2011-10-30 14:53:00
9:53 AM,46.9,32.0,56,30.30,10.0,SE,9.2,-,N/A,,Clear,140,2011-10-30 15:53:00
10:53 AM,51.1,30.9,46,30.30,10.0,SE,3.5,-,N/A,,Clear,140,2011-10-30 16:53:00
11:53 AM,57.0,30.9,37,30.30,10.0,NW,5.8,-,N/A,,Clear,320,2011-10-30 17:53:00
12:53 PM,57.9,30.0,35,30.29,10.0,Calm,Calm,-,N/A,,Partly Cloudy,0,2011-10-30 18:53:00
1:53 PM,61.0,28.9,30,30.25,10.0,NNW,4.6,-,N/A,,Clear,330,2011-10-30 19:53:00
2:53 PM,63.0,30.0,29,30.22,10.0,NNW,5.8,-,N/A,,Clear,330,2011-10-30 20:53:00
3:53 PM,62.1,30.0,30,30.22,10.0,North,6.9,-,N/A,,Clear,350,2011-10-30 21:53:00
4:53 PM,62.6,28.4,27,30.24,10.0,NW,5.8,-,N/A,,Clear,320,2011-10-30 22:53:00
5:53 PM,57.9,30.0,35,30.19,10.0,North,5.8,-,N/A,,Clear,360,2011-10-30 23:53:00
6:53 PM,53.1,30.9,43,30.20,10.0,North,6.9,-,N/A,,Clear,350,2011-10-31 00:53:00
7:53 PM,50.0,32.0,50,30.23,10.0,Calm,Calm,-,N/A,,Clear,0,2011-10-31 01:53:00
8:53 PM,48.0,33.1,56,30.21,10.0,WSW,3.5,-,N/A,,Clear,250,2011-10-31 02:53:00
9:53 PM,46.0,32.0,58,30.20,10.0,SSE,3.5,-,N/A,,Clear,150,2011-10-31 03:53:00
10:53 PM,43.0,30.9,62,30.19,10.0,SSE,8.1,-,N/A,,Clear,160,2011-10-31 04:53:00
11:53 PM,43.0,32.0,65,30.16,10.0,SSE,6.9,-,N/A,,Clear,160,2011-10-31 05:53:00